Terug naar catalogus

STARLINK-32043

ActiefCommunicatieVLEO
NORAD 60135·PAYLOAD·🇺🇸 United States

Gelanceerd Jun 27, 2024 vanaf Cape Canaveral Space Force Station

Loading…

Volgende Passages (komende 24 uur)

TLE

VersSource: CelesTrak SupGP

Epoch: Sep 15, 2026, 03:21 UTC

1 60135C 24120A   26258.14006944  .00029836  00000+0  88163-3 0  2589
2 60135  53.1570 156.8649 0001146  92.1020 330.9738 15.34371909    19

Volg STARLINK-32043 in realtime met AllMySat

Download on the App Store